Showing default

CHUANG XIN 16B (CX-16B), 53876

Orbit data source: Space-Track

CHUANG XIN 16B (CX-16B), 53876 is a payload satellite owned by IMI/CAS (CN) in LEO that was launched on Tue, 23 Aug 2022 UTC via a KUAIZHOU-1A launch vehicle from the Xichang Space Center, China (XSC). Payload-class satellites include a variety of spacecraft equipped with specific instruments for various scientific and technological missions. These include communications satellites like Starlink; space stations such as the ISS; scientific satellites like the Hubble; Earth observation satellites from companies like Planet Labs, Umbra, and HawkEye 360; GPS; miniature CubeSats for education and research; and military/defense satellites.

Not visible in the next 10 days
Identifier
53876, 2022-102B
Orbit
LEO
Country
Flag of CNCN / PRC
Related business
Manufacturer
IMI/CAS
Mission
Operational Civil Technology
Bus & Motor
CX16, Unknown motor
Mass
100 kg wet, ~100 kg dry
Launch date (UTC)
2022-08-23 (4 years ago)
Launch vehicle
KUAIZHOU-1A
Launch site
Xichang Space Center, China (XSC)
Object type
Payload
Rocket body
Debris
Shape & HBR
Box + 1 Pan, 1.0 m
Radar Cross Section
0.763 m², Medium (>0.1 m² and < 1m²)

Expand to show TLE details & history
Last TLE update: 11 hours ago

TLE from 11 hours ago
0 CHUANG XIN 16B (CX-16B)
1 53876U 22102B   26094.85159875  .00053793  00000-0  12836-2 0  9994
2 53876  28.9929 339.3586 0001137 275.5381  84.5098 15.40192924195376
Epoch: 2026-04-04T20:26Z
TLE epoch observation values (Epoch: 2026-04-04T20:26:18.132Z)
Latitude
-0.00002°
Longitude
-160.38241°
Altitude
443.76 km
Speed
7.649 km/s
True Right ascension
22h 37m 26s
True Declination
0° 00' 00"
Sunlit
Object was in daylight at epoch
Visualization orbit readout
Latitude
Unknown
Longitude
Unknown
Altitude
Unknown
Speed
Unknown
Apparent Right ascension
Unknown
Apparent Declination
Unknown
Sunlit
N/A
Visualization observer readout
Local Sidereal Time
13:08:37
Azimuth
Unknown
Elevation
Unknown
Doppler factor
Unknown
Orbital elements
Apogee altitude
450.502 km
Perigee altitude
448.949 km
Semi-major axis
6,827.862 km
Eccentricity
0.00011
Inclination
28.9929°
RAAN
339.3586°
Arg. of periapsis
275.5381°
True anomaly
84.52277°
Mean anomaly
84.5098°
Eccentric anomaly
84.51628°
Mean motion
3.84695 °/min
Orbital period
93.58 mins
BSTAR
0.0012836
Loading maneuver chart data...
Computing Atmospheric mass density...
Loading historical data...
Loading historical data...
Loading historical data...
Loading historical data...
Loading historical data...
Loading historical data...
Loading historical data...
Other satellites on launch #102 in the year 2022 (2022-08-23 UTC)

Documentation

Showing up to 5 results
|